Location: ????????
(55.9297°N, 38.5708°E)
Time: 06:36:44
(UTC+00:00)

Daily predictions for brighter satellites

Satellite Brightness Start Highest point End
(mag) Time Altitude Azimuth Time Altitude Azimuth Time Altitude Azimuth
SPOT 3 Rocket 4.2 19:08:03 10° S 19:13:04 52° W 19:18:09 10° NNW
Cosmos 1814 Rocket 4.5 19:08:11 10° NNW 19:13:24 59° WSW 19:18:37 10° S
Cosmos 1400 Rocket 3.7 19:10:59 10° SSW 19:14:45 49° WNW 19:18:29 10° N
Cosmos 1741 Rocket 4.1 19:09:33 10° SSW 19:14:50 81° ESE 19:20:11 10° NNE
Meteor 1-21 4.3 19:09:31 10° S 19:15:19 80° E 19:21:10 10° NNE
ATLAS CENTAUR R/B 1.0 19:14:56 10° SSW 19:18:23 59° SE 19:22:01 10° NE
Timation 1 Rocket 4.4 19:13:11 10° SW 19:19:09 89° NW 19:25:10 10° NE
Cosmos 1733 Rocket 4.1 19:21:14 10° NNW 19:25:24 42° W 19:29:34 10° SSW
Cosmos 1408 4.4 19:24:08 10° ESE 19:25:36 13° E 19:27:06 10° NE
NOSS 5 (C) 4.4 19:23:49 10° WNW 19:27:04 61° SW 19:30:11 10° SE
Cosmos 1356 Rocket 3.9 19:23:26 10° SSW 19:27:37 66° WNW 19:31:49 10° N
Cosmos 2360 Rocket 3.4 19:22:47 10° NW 19:27:51 34° WSW 19:32:52 10° S
Cosmos 1953 2.2 19:24:23 10° NNW 19:28:14 86° W 19:32:04 10° S
Okean 1-7 3.1 19:26:13 10° S 19:30:29 62° E 19:34:46 10° NNE
Terra 3.5 19:26:29 10° SSW 19:30:33 29° W 19:34:40 10° NNW
Okean 2 3.5 19:27:46 10° S 19:31:42 61° E 19:35:42 10° NNE
BlueWalker 3 3.5 19:32:14 10° S 19:34:29 15° SE 19:36:45 10° ESE
ARIANE 5 R/B 2.8 19:30:31 10° SSE 19:34:47 65° ENE 19:39:07 10° N
Cosmos 1315 Rocket 2.9 19:31:51 10° S 19:35:47 66° E 19:39:47 10° NNE
Cosmos 2208 Rocket 4.0 19:34:07 10° NNW 19:39:22 86° ENE 19:44:33 10° SSE
Nadezhda 1 Rocket 4.1 19:33:07 10° N 19:39:28 72° ENE 19:45:40 10° SSE
SL-16 R/B 4.4 19:37:09 10° WNW 19:40:26 16° W 19:43:41 10° SW
Cosmos 1908 Rocket 3.6 19:36:42 10° NNW 19:41:04 77° W 19:45:22 10° S
Cosmos 1455 2.3 19:40:01 10° NNW 19:43:29 64° W 19:46:58 10° S
Cosmos 1782 Rocket 3.7 19:39:44 10° N 19:44:05 67° ENE 19:48:19 10° SSE
GP-B 3.3 19:40:04 10° N 19:44:28 63° E 19:48:51 10° S
Cosmos 2333 Rocket 3.7 19:42:12 10° NW 19:47:01 28° WSW 19:51:48 10° SSW
SL-27 R/B 3.4 19:48:09 10° SW 19:50:48 38° WNW 19:53:28 10° NNE
Aureole 3 4.3 19:47:30 10° SSW 19:51:46 62° WNW 19:57:09 10° N
ATLAS 2AS CENTAUR R/B 4.0 19:48:43 10° WNW 19:54:15 27° WSW 19:59:40 10° S
SL-16 R/B 3.6 19:52:48 10° NNW 19:58:02 35° NE 20:03:14 10° ESE
Cosmos 1300 Rocket 3.5 19:55:26 10° N 19:59:46 79° ENE 20:03:50 12° SSE
COSMOS 2455 3.8 19:55:38 10° S 20:00:48 31° ESE 20:05:58 10° NE
USA 281 3.4 19:56:48 10° SSE 20:03:20 71° WSW 20:09:57 10° NNW
Cosmos 2237 Rocket 2.4 19:58:49 10° NNW 20:04:31 74° NE 20:10:11 10° SE
Cosmos 1833 4.4 19:59:07 10° SW 20:04:45 79° NW 20:10:25 10° NE
Landsat 5 4.2 20:01:04 10° N 20:04:57 52° WNW 20:08:58 10° SW
Cosmos 1703 4.4 20:03:36 11° SSE 20:06:28 26° E 20:09:36 10° NNE
Cosmos 2322 4.3 20:03:48 10° NW 20:09:14 47° WSW 20:14:26 11° S
NOSS 0 Rocket 4.1 20:05:06 10° NW 20:11:19 72° WSW 20:17:15 11° SSE
Spot 4 3.9 20:08:52 11° SSE 20:13:24 77° ENE 20:18:15 10° NNW
Cosmos 2098 Rocket 4.4 20:08:21 10° N 20:14:54 60° ENE 20:21:02 11° SSE
Cosmos 2227 Rocket 4.0 20:12:03 10° SE 20:15:26 16° E 20:18:49 10° ENE
Meteor 1-4 Rocket 3.9 20:14:24 10° SW 20:17:05 29° WNW 20:19:47 10° N
Cosmos 1980 3.7 20:12:14 10° NW 20:17:57 90° NNE 20:23:30 11° SSE
Okean 2 Rocket 4.2 20:14:21 10° N 20:18:31 36° ENE 20:22:40 10° SE
Cosmos 1242 Rocket 2.2 20:16:48 10° SSW 20:19:31 61° WNW 20:22:15 10° N
Cosmos 1825 4.3 20:20:42 10° ESE 20:22:24 13° E 20:24:07 10° NE
Meteor 1-24 Rocket 4.4 20:18:14 12° SSE 20:23:15 42° E 20:28:28 10° NNE
BREEZE-M DEB (TANK) 1.8 20:20:08 10° W 20:24:04 47° S 20:26:08 10° ESE
ALOS 2 2.8 20:20:31 12° SSE 20:24:31 71° ENE 20:28:55 10° NNW
H-2A R/B 2.6 20:22:25 13° S 20:26:15 75° WSW 20:30:30 10° NNW
Cosmos 1703 Rocket 4.0 20:23:07 10° SSW 20:27:33 62° WNW 20:31:59 10° N
EXPRESS MD2 3.6 20:26:48 10° SW 20:28:20 16° S 20:28:21 16° S
Cosmos 2297 Rocket 3.0 20:30:07 12° S 20:34:42 36° ESE 20:39:49 10° NE
SL-4 R/B 3.1 20:31:27 10° W 20:34:48 26° SSW 20:37:39 13° SSE
Cosmos 1709 Rocket 4.1 20:30:06 11° S 20:36:11 74° E 20:42:32 10° NNE
SJ 16-02 2.9 20:38:04 10° WSW 20:42:04 35° NW 20:46:06 10° NNE
Cosmos 2219 Rocket 4.1 20:41:49 10° WNW 20:45:35 18° W 20:49:20 10° SW
Sich 1 Rocket 3.9 20:41:23 10° N 20:45:45 59° ENE 20:49:36 13° SSE
CZ-4C R/B 2.5 20:43:51 11° SSW 20:48:01 41° SE 20:53:31 10° ENE
Cosmos 2242 Rocket 3.7 20:46:04 12° SSW 20:50:18 87° WNW 20:54:54 10° NNE
USA 234 3.3 20:45:05 10° ENE 20:51:41 84° SSE 20:58:15 10° WSW
COSMOS 2428 3.9 20:47:01 10° NW 20:51:55 30° WSW 20:56:33 11° SSW
CENTAUR R/B 3.9 20:49:56 12° SSE 20:53:53 23° ESE 20:59:03 10° ENE
NOSS 8 (E) 4.4 20:50:22 10° SW 20:53:54 53° SE 20:56:51 10° ENE
MINOTAUR 4 R/B 4.4 20:51:23 10° N 20:54:12 46° WNW 20:57:00 10° SW
ATLAS CENTAUR R/B 2.9 20:52:56 10° W 20:56:15 34° NNW 20:59:42 10° NE
Cosmos 1408 2.7 20:55:18 12° SSW 20:57:57 49° WNW 21:00:53 10° N
Meteor 2-5 Rocket 3.9 20:58:01 13° S 21:03:23 78° ESE 21:09:13 10° NNE
Cosmos 2263 Rocket 4.1 21:02:49 10° SE 21:06:02 16° E 21:09:15 10° ENE
Cosmos 1818 4.1 21:00:42 10° NW 21:06:11 63° NE 21:11:37 10° ESE
Cosmos 405 Rocket 2.9 21:05:11 10° NNW 21:08:53 57° W 21:11:47 16° S
ARIANE 5 R/B 4.5 21:08:21 10° SW 21:11:37 21° W 21:14:54 10° NW
BlueWalker 3 2.2 21:08:26 10° SW 21:11:57 40° SSE 21:15:30 10° E
Okean 1 Rocket 3.2 21:10:12 10° N 21:14:35 72° ENE 21:18:20 14° SSE
Cosmos 371 Rocket 3.3 21:15:13 10° SSW 21:20:01 83° WNW 21:24:54 10° NNE
Cosmos 2084 Rocket 4.0 21:20:54 14° SSW 21:24:05 38° SE 21:27:55 10° ENE
PSLV R/B 3.5 21:22:34 10° NNE 21:26:50 76° ESE 21:30:16 15° S
Cosmos 1538 Rocket 4.0 21:24:12 10° NNW 21:29:26 86° WSW 21:34:29 11° SSE
NOSS 8 (H) 4.1 21:27:05 10° SW 21:30:30 82° SE 21:33:24 10° NE
Cosmos 1777 Rocket 4.0 21:25:44 12° SSW 21:30:36 79° ESE 21:35:55 10° NNE
H-2A R/B 2.3 21:26:39 10° NNE 21:30:52 56° ESE 21:34:11 15° S
Cosmos 1503 Rocket 4.1 21:26:53 11° SSW 21:32:06 89° NW 21:37:25 10° NNE
Cosmos 1892 2.4 21:31:59 16° S 21:34:39 80° E 21:38:12 10° NNE
Cosmos 2181 Rocket 4.4 21:30:41 10° NNW 21:36:44 55° W 21:42:03 13° SSW
Cosmos 1703 4.4 21:38:14 10° SW 21:41:38 34° WNW 21:45:02 10° N
SL-16 R/B 2.2 21:36:56 10° NW 21:42:39 74° WSW 21:48:19 10° SSE
Cosmos 1975 Rocket 4.5 21:39:40 10° SSE 21:43:27 29° E 21:47:15 10° NNE
NOSS 3-2 (A) 4.4 21:40:26 13° SSE 21:44:15 27° ESE 21:49:21 10° ENE
Helios 1A Rocket 3.9 21:42:15 10° SE 21:45:48 39° ENE 21:49:23 10° N
COSMOS 2455 3.0 21:40:13 10° SW 21:46:16 78° NW 21:52:22 10° NE
Cosmos 2237 Rocket 3.4 21:43:24 10° NW 21:48:07 28° WSW 21:52:14 13° SSW
Cosmos 1455 Rocket 3.2 21:45:40 10° N 21:50:07 73° ENE 21:54:16 12° SSE
CZ-2D R/B 4.5 21:48:39 10° ENE 21:50:48 12° E 21:52:56 10° ESE
Cosmos 2074 Rocket 4.0 21:46:00 13° S 21:51:33 90° E 21:57:50 10° NNE
Orbus 7S? 2.5 21:49:14 10° WNW 21:51:56 60° SSW 21:54:57 10° ESE
Cosmos 1328 3.8 21:51:50 15° S 21:54:56 76° E 21:58:50 10° NNE
Cosmos 1943 3.7 21:50:01 10° NNW 21:55:37 61° NE 22:01:10 10° SE
Cosmos 1825 2.1 21:53:24 15° SSW 21:56:06 66° WNW 21:59:32 10° N
Okean 2 Rocket 4.1 21:52:27 10° NNW 21:56:32 35° W 22:00:06 13° SSW
Cosmos 923 Rocket 4.1 21:51:55 10° NNW 21:57:15 79° ENE 22:02:29 10° SSE
CZ-2C R/B 4.3 21:53:52 10° ESE 21:58:30 31° ENE 22:03:15 10° N
Cosmos 2227 Rocket 2.3 21:53:22 13° SSW 21:58:32 72° ESE 22:04:12 10° NE
Cosmos 1869 4.3 21:55:42 10° N 21:59:12 38° ENE 22:02:41 10° SE
ALOS 2 4.5 21:58:09 10° SW 22:01:20 19° W 22:04:33 10° NW
Cosmos 1674 Rocket 4.0 21:58:17 13° SSW 22:02:07 57° WNW 22:06:25 10° N
Cosmos 1378 Rocket 4.2 21:58:19 12° SSW 22:02:16 49° WNW 22:06:35 10° N
Cosmos 1025 Rocket 3.1 22:00:50 14° S 22:04:28 75° E 22:08:47 10° NNE
Cosmos 1898 Rocket 4.3 22:07:10 12° S 22:11:32 40° ESE 22:16:21 10° NE
Cosmos 332 Rocket 4.0 22:09:31 11° SW 22:14:14 74° WNW 22:19:09 10° NNE
Cosmos 1354 Rocket 4.5 22:09:38 10° SW 22:14:53 60° WNW 22:20:09 10° NNE
Aureole 1 Rocket 3.5 22:14:13 14° S 22:17:19 50° ESE 22:21:59 10° NE
Cosmos 1607 4.5 22:10:52 10° NW 22:17:20 66° NE 22:23:40 10° ESE
Cosmos 2297 Rocket 2.7 22:12:57 10° SW 22:18:33 59° NW 22:24:10 10° NNE
SJ 16-02 4.4 22:20:33 10° NW 22:21:44 11° NNW 22:22:56 10° NNW
Nadezhda 3 Rocket 4.4 22:16:27 10° NNW 22:22:32 53° W 22:28:07 12° SSW
Cosmos 2221 Rocket 4.5 22:18:28 10° SW 22:22:37 42° WNW 22:26:52 10° N
Cosmos 2219 3.4 22:18:32 13° SSW 22:23:35 65° ESE 22:29:09 10° NE
Cosmos 1606 2.8 22:21:32 10° N 22:25:06 68° ENE 22:28:41 10° SSE
Resurs 1-4 Rocket 3.9 22:21:23 10° NE 22:25:30 23° E 22:29:37 10° SE
Meteor 1-21 Rocket 4.3 22:23:19 12° SSW 22:28:38 90° E 22:34:19 10° NNE
USA 234 3.4 22:28:12 10° E 22:34:46 82° N 22:41:20 10° W
ATLAS CENTAUR R/B 4.0 22:31:52 10° NW 22:34:48 22° N 22:37:49 10° NE
CZ-4C R/B 2.7 22:31:11 10° WSW 22:36:10 64° NNW 22:42:39 10° NE
Cosmos 1680 Rocket 3.5 22:33:38 10° NNW 22:38:50 71° WSW 22:44:00 10° SSE
Cosmos 2366 rocket 4.4 22:33:20 10° S 22:39:29 61° E 22:45:37 10° NNE
Cosmos 2112 Rocket 4.0 22:36:39 10° NNW 22:41:52 77° WSW 22:47:02 10° SSE
BREEZE-M DEB (TANK) 3.8 22:38:41 10° W 22:42:35 18° SW 22:44:22 12° S
CENTAUR R/B 2.7 22:37:17 10° SW 22:43:17 77° SE 22:50:49 10° NE
Cosmos 2263 Rocket 2.3 22:43:42 11° SSW 22:49:00 70° ESE 22:54:34 10° NE
Cosmos 1818 4.1 22:44:29 10° NW 22:49:37 41° WSW 22:54:42 10° SSE
BlueWalker 3 1.9 22:46:09 10° W 22:49:51 57° S 22:53:32 10° ESE
Cosmos 990 Rocket 4.3 22:48:04 10° SW 22:53:09 62° WNW 22:58:17 10° NNE
Cosmos 2228 3.0 22:49:32 10° NNW 22:53:53 88° ENE 22:58:11 10° S
Cosmos 1544 Rocket 3.7 22:57:39 10° NNW 23:02:04 62° W 23:06:26 10° S
Cosmos 2084 Rocket 3.9 22:58:56 10° WSW 23:03:06 58° NNW 23:07:07 10° NE
H-2A R/B 3.7 23:02:47 10° N 23:06:18 25° WNW 23:09:44 10° WSW
Cosmos 1844 Rocket 4.1 23:03:42 10° SSE 23:08:20 28° ESE 23:12:59 10° NE
IDEFIX/ARIANE 42P 3.1 23:04:20 10° NNE 23:09:30 56° E 23:14:38 10° S
SL-8 Rocket 4.1 23:03:30 10° SSW 23:09:41 82° WNW 23:15:57 10° N
MOZ.5/SAFIR/RUBIN 5/SL-8 4.0 23:05:13 10° S 23:09:47 56° W 23:14:21 10° NNW
SL-16 R/B 3.2 23:07:02 10° SE 23:13:08 58° ENE 23:19:15 10° NNW
Meteor 1-27 4.3 23:08:00 10° NNW 23:13:54 84° WSW 23:19:42 10° S
Cosmos 1048 Rocket 4.2 23:08:41 10° NNW 23:13:55 77° ENE 23:19:11 10° SSE
Cosmos 724 4.3 23:11:12 10° NW 23:17:02 88° SW 23:22:53 10° SE
Helios 1A Rocket 4.0 23:16:58 10° SSW 23:20:15 27° W 23:23:31 10° NW
Cosmos 1975 Rocket 3.8 23:16:55 10° SW 23:21:05 43° WNW 23:25:20 10° N
CZ-2C R/B 4.0 23:16:17 10° NNE 23:21:35 47° E 23:26:34 10° S
SL-19 R/B 4.3 23:20:28 10° N 23:23:27 44° WNW 23:26:12 10° SW
Cosmos 494 Rocket 4.0 23:19:18 10° NNW 23:24:32 73° WSW 23:29:46 10° SSE
Cosmos 372 Rocket 4.1 23:19:37 10° SSW 23:24:51 76° WNW 23:30:06 10° NNE
Cosmos 1727 Rocket 4.1 23:18:35 10° NNW 23:24:56 81° W 23:31:17 10° S
GEOS 3 Rocket 3.7 23:20:01 10° NE 23:25:14 81° NW 23:30:22 10° WSW
ALOS 4.2 23:21:33 10° NE 23:25:20 24° E 23:29:07 10° SSE
Meteor 1-28 Rocket 4.0 23:22:13 10° SE 23:25:39 49° ENE 23:29:07 10° N
SL-16 R/B 3.9 23:22:18 10° WNW 23:25:50 17° W 23:29:21 10° SW
Cosmos 1461 2.8 23:23:41 10° SW 23:27:35 66° SE 23:31:26 10° NE
Cosmos 921 Rocket 2.9 23:25:07 10° NNW 23:29:23 73° WSW 23:33:33 10° SSE
Cosmos 1603 3.9 23:26:01 10° NW 23:31:39 55° WSW 23:37:13 10° S
CZ-2D R/B 2.6 23:26:39 10° NNE 23:31:59 61° ESE 23:37:12 10° S
COSMOS 2455 4.4 23:27:32 10° W 23:33:02 35° NNW 23:38:33 10° NE
NOSS 3-2 (A) 3.5 23:28:43 10° SW 23:34:14 87° NW 23:40:59 10° NE
Cosmos 1606 Rocket 3.6 23:33:00 10° NNW 23:37:30 89° W 23:41:56 10° S
CZ-2C R/B 2.8 23:33:12 10° S 23:38:28 62° WSW 23:43:54 10° NNW
Cosmos 1943 3.9 23:34:23 10° NW 23:39:24 34° WSW 23:44:23 10° S
FENGYUN 3A 4.4 23:35:30 10° NNE 23:40:45 51° E 23:45:59 10° S
NOSS 3-2 (C) 3.6 23:36:01 10° SSW 23:41:23 65° SE 23:47:54 10° NE
Cosmos 2082 4.0 23:36:08 10° SW 23:41:43 64° NW 23:47:20 10° NNE
Cosmos 1867 4.4 23:36:52 10° SSW 23:41:59 42° ESE 23:47:08 10° NE
